Regional Weather Roundup
Issued by NWS

Home | Current Version | Previous Version | Text Only | Print | Product List | Glossary Off
Versions: 1 2 3 4 5 6 7 8 9 10 11 12 13 14 15 16 17 18 19 20 21 22 23 24 25 26 27 28 29 30 31 32 33 34 35 36 37 38 39 40 41 42 43 44 45 46 47 48 49 50

000
ASUS45 KABQ 140601
RWRNM
NEW MEXICO REGIONAL WEATHER ROUNDUP
NATIONAL WEATHER SERVICE ALBUQUERQUE NM
1100 PM MST WED DEC 13 2017

NOTE: "FAIR" MEANS FEW OR NO CLOUDS BELOW 12,000 FEET AGL WITH NO
       SIGNIFICANT WEATHER OR OBSTRUCTIONS TO VISION.

      THIS PRODUCT IS RELEASED AS TWO VERSIONS.  ONE VERSION NEAR
      THE TOP OF THE HOUR CONTAINING PRELIMINARY DATA FROM ALBUQUERQUE
      AND OTHER STATIONS.  A FINAL VERSION WITH ADDITIONAL DATA IS
      ISSUED ABOUT 10 MINUTES AFTER THE HOUR.

NMZ501-503-504-510>518-140700-
NORTHWEST PLATEAU/NORTHCENTRAL MOUNTAINS

CITY           SKY/WX    TMP DP  RH WIND       PRES   REMARKS
FARMINGTON     FAIR      28   4  35 CALM      30.00F
6HR MIN TEMP:  25; 6HR MAX TEMP:  41;

LOS ALAMOS     FAIR      38   6  25 S7        30.04R WCI  33
SANTA FE       FAIR      31   8  38 SW8       30.03R WCI  23
6HR MIN TEMP:  27; 6HR MAX TEMP:  44;

TAOS           CLOUDY    27   6  41 N6        30.05R WCI  20
ANGEL FIRE     FAIR      26  10  49 E5        30.05S WCI  21

$$
NMZ402-403-502-505>509-140700-
WESTCENTRAL MOUNTAINS/SOUTHWEST MOUNTAINS

CITY           SKY/WX    TMP DP  RH WIND       PRES   REMARKS
GALLUP         FAIR      19  -2  39 NE3       30.07R
6HR MIN TEMP:  18; 6HR MAX TEMP:  49;

GRANTS         FAIR      22   0  38 NW6       30.07R WCI  14
SILVER CITY    FAIR      32  16  50 NW7       30.03F WCI  26

$$
NMZ407-409-411-412-140700-
SOUTHERN DESERTS

CITY           SKY/WX    TMP DP  RH WIND       PRES   REMARKS
DEMING         FAIR      36  15  42 W6        30.01S WCI  31
6HR MIN TEMP:  36; 6HR MAX TEMP:  59;

LAS CRUCES     FAIR      37  16  42 SW6       30.02S WCI  32
HOLLOMAN AFB   FAIR      33   4  29 CALM      30.02F
ALAMOGORDO     FAIR      36   3  25 E5        30.01S WCI  32
T OR C         FAIR      37   3  24 VRB3      30.00F
6HR MIN TEMP:  36; 6HR MAX TEMP:  55;


$$
NMZ519>523-140700-
CENTRAL VALLEYS/CENTRAL HIGHLANDS

CITY           SKY/WX    TMP DP  RH WIND       PRES   REMARKS
ALBUQUERQUE    FAIR      33   7  33 NW7       30.02S WCI  27
6HR MIN TEMP:  31; 6HR MAX TEMP:  51;

MORIARTY ARPT  FAIR      19   2  48 CALM      30.05F
6HR MIN TEMP:  17; 6HR MAX TEMP:  46;

CLINES CORNERS NOT AVBL
BELEN          FAIR      28   2  33 CALM      30.02S
6HR MIN TEMP:  28; 6HR MAX TEMP:  50;

SOCORRO        FAIR      32   1  26 CALM      30.02S
6HR MIN TEMP:  31; 6HR MAX TEMP:  48;


$$
NMZ524>526-539-540-140700-
SOUTHCENTRAL MOUNTAINS

CITY           SKY/WX    TMP DP  RH WIND       PRES   REMARKS
RUIDOSO        FAIR      36   3  25 CALM      30.07F

$$
NMZ527>531-140700-
NORTHEAST HIGHLANDS/NORTHEAST PLAINS

CITY           SKY/WX    TMP DP  RH WIND       PRES   REMARKS
LAS VEGAS      FAIR      31   7  36 SW7       30.04F WCI  24
6HR MIN TEMP:  29; 6HR MAX TEMP:  40;

RATON          CLOUDY    32   8  36 N3        30.03R
6HR MIN TEMP:  27; 6HR MAX TEMP:  42;

CLAYTON        FAIR      40  13  33 N6        30.03S
6HR MIN TEMP:  37; 6HR MAX TEMP:  42;


$$
NMZ532>537-140700-
EASTCENTRAL PLAINS

CITY           SKY/WX    TMP DP  RH WIND       PRES   REMARKS
SANTA ROSA     FAIR      35  10  35 CALM      30.02S
TUCUMCARI      FAIR      29  11  47 CALM      29.99F
6HR MIN TEMP:  28; 6HR MAX TEMP:  49;

CANNON AFB     CLEAR     35  14  41 NE10      30.01F WCI  27
6HR MIN TEMP:  33; 6HR MAX TEMP:  47;

CLOVIS AIRPORT FAIR      30  16  56 MISG      30.01F

$$
NMZ028-029-538-140700-
SOUTHEAST PLAINS

CITY           SKY/WX    TMP DP  RH WIND       PRES   REMARKS
ROSWELL        FAIR      35  11  36 W3        29.99S
6HR MIN TEMP:  33; 6HR MAX TEMP:  59;

ARTESIA        FAIR      39  10  30 NW12      29.99S WCI  32
CARLSBAD       FAIR      42  20  41 CALM      29.96S
6HR MIN TEMP:  36; 6HR MAX TEMP:  57;

HOBBS          FAIR      36  14  41 NE7       29.97R WCI  30


$$



USA.gov is the U.S. government's official web portal to all federal, state and local government web resources and services.